ITAMSAT (IO-26)

Last updated on Mon Sep 15 2025 00:03:09 GMT+0000 (Coordinated Universal Time)

1 22826U 93061D 25257.13177856 .00000077 00000+0 46028-4 0 9995 2 22826 98.7223 319.0190 0009171 167.3018 192.8397 14.31244533667828
UTC large
Height (km)
Speed (km/s)
/
Latitude / Longitude
Inclination (degrees)
Orbital Period (minutes)
Azimuth
Elevation
Range (km)
Doppler Factor

Next 0 passes for location: London (51.5072 / 0.1276)

Sorry there are no passes over London.